Regional Weather Roundup
Issued by NWS

Home | Current Version | Previous Version | Text Only | Print | Product List | Glossary Off
Versions: 1 2 3 4 5 6 7 8 9 10 11 12 13 14 15 16 17 18 19 20 21 22 23 24 25 26 27 28 29 30 31 32 33 34 35 36 37 38 39 40 41 42 43 44 45 46 47 48 49 50

639
ASUS43 KMPX 251210
RWRMN
WEATHER ROUNDUP FOR MINNESOTA
NATIONAL WEATHER SERVICE TWIN CITIES/CHANHASSEN MN
700 AM CDT SAT MAR 25 2017


NOTE: "FAIR" INDICATES FEW OR NO CLOUDS BELOW 12,000 FEET WITH NO
SIGNIFICANT WEATHER AND/OR OBSTRUCTIONS TO VISIBILITY. N/A MEANS
CURRENT SKY AND/OR WEATHER CONDITIONS ARE NOT AVAILABLE.

MNZ060>063-068>070-251300-
   Twin Cities Metro

CITY           SKY/WX    TMP DP  RH WIND       PRES   REMARKS
TWIN CITIES    CLOUDY    37  30  75 NE10      30.17R
6HR MIN TEMP:  37; 6HR MAX TEMP:  39;

ST PAUL        CLOUDY    37  32  82 NE9       30.19R
CRYSTAL        CLOUDY    36  29  75 NE7       30.17S
BLAINE         CLOUDY    37  34  87 NE9       30.18R
LAKEVILLE      CLOUDY    36  32  87 NE10      30.15R
EDEN PRAIRIE   CLOUDY    38  31  76 NE9       30.15S
6HR MIN TEMP:  38; 6HR MAX TEMP:  40;

SOUTH ST PAUL  CLOUDY    37  32  79 NE9       30.17S
LAKE ELMO      CLOUDY    36  32  87 NE8       30.18S
$$
MNZ001>005-007-008-013>017-022>024-027-028-251300-
   Northwest Minnesota

CITY           SKY/WX    TMP DP  RH WIND       PRES   REMARKS
BEMIDJI        CLOUDY    33  30  90 SE7       30.21R WCI  26
HALLOCK        CLOUDY    32  28  86 SE13      30.16S WCI  22
ROSEAU         CLOUDY    30  25  80 SE7       30.20S WCI  23
WARROAD        CLOUDY    27  23  86 CALM      30.21F
THIEF RVR FALL CLEAR    N/A N/A N/A SE10      30.19F
CROOKSTON      CLEAR     30  28  93 SE9       30.18F WCI  22
FOSSTON        CLOUDY    27  27 100 CALM      30.20S
DETROIT LAKES  CLOUDY    34  30  86 SE12G18   30.18S WCI  25
MOORHEAD       CLEAR     28  27  93 CALM      30.19R
PARK RAPIDS    CLOUDY    35  26  69 SE10      30.19R WCI  27
MAHNOMEN       CLOUDY    31  29  89 E5        30.18S WCI  27
$$
MNZ006-009>011-018-025>026-251300-
   North Central Minnesota

CITY           SKY/WX    TMP DP  RH WIND       PRES   REMARKS
BAUDETTE       CLOUDY    27  24  89 E7        30.22S WCI  19
FLAG ISLAND    CLOUDY    28  25  86 SE6       30.21F WCI  22
INTL FALLS     CLOUDY    33  29  85 SE6       30.25R WCI  28
6HR MIN TEMP:  33; 6HR MAX TEMP:  34;

WASKISH        CLOUDY    30  28  93 E3        30.23R
BIG FORK       CLOUDY    34  30  86 SE5       30.24R WCI  30
LONGVILLE      CLOUDY    34  30  86 E3        30.21S
GRAND RAPIDS   CLOUDY    32  29  88 E6        30.25S WCI  26
CRANE LAKE     CLOUDY    30  28  93 CALM      30.29R
ORR            CLOUDY    30  27  86 CALM      30.24R
COOK           CLOUDY    30  28  93 CALM      30.26S
WALKER         CLOUDY    32  30  93 E5        30.21S WCI  27
$$
MNZ012-019>021-037-251300-
   Northeast Minnesota

CITY           SKY/WX    TMP DP  RH WIND       PRES   REMARKS
DULUTH         CLOUDY    32  29  88 E13       30.24R WCI  22
6HR MIN TEMP:  32; 6HR MAX TEMP:  33;

ELY            CLOUDY    30  27  86 E5        30.27R WCI  25
HIBBING        CLOUDY    30  27  88 E8        30.25R WCI  22
EVELETH        CLOUDY    32  28  83 E7        30.26S WCI  26
DULUTH HARBOR  CLOUDY    34  30  86 E20       30.28R WCI  22
TWO HARBORS    CLOUDY    36  30  80 NE8       30.26R
SILVER BAY     CLOUDY    34  30  86 NE8       30.28R WCI  27
GRAND MARAIS     N/A     31  23  72 NE14G22   30.37R WCI  21
G MARAIS ARPRT CLOUDY    21  16  79 NE3       30.30R
$$
MNZ029>031-032-039>041-046>048-054>057-064-251300-
   West Central Minnesota

CITY           SKY/WX    TMP DP  RH WIND       PRES   REMARKS
FERGUS FALLS   CLOUDY    34  28  80 SE9       30.21S WCI  26
WHEATON        CLOUDY    34  30  86 E9        30.19R WCI  26
MORRIS         CLOUDY    34  30  86 E12       30.16S WCI  25
ALEXANDRIA     CLOUDY    32  29  88 E17       30.17S WCI  21
ELBOW LAKE     CLOUDY    32  31  94 SE13      30.18R WCI  22
WADENA         CLOUDY    34  28  80 E10       30.18S WCI  26
GLENWOOD       CLOUDY    32  30  93 E17       30.18R WCI  21
APPLETON       CLOUDY    36  30  80 CALM      30.17R
BENSON         CLOUDY    36  28  75 SE7       30.19S
ORTONVILLE     CLOUDY    34  30  86 SE7       30.16S WCI  28
MADISON        CLOUDY    37  36  93 E8        30.16S
WILLMAR        CLOUDY    36  32  87 E10G18    30.17F
$$
MNZ033>034-036-042>043-049>051-058-059-251300-
   Central Minnesota

CITY           SKY/WX    TMP DP  RH WIND       PRES   REMARKS
ST CLOUD       CLOUDY    34  30  85 E7        30.19R WCI  28
6HR MIN TEMP:  34; 6HR MAX TEMP:  36;

SAUK CENTRE    CLOUDY    32  29  89 E15       30.19R WCI  22
PAYNESVILLE      N/A     33  31  90 E9G16     30.18S WCI  26
AITKIN         CLOUDY    36  28  75 NE6       30.21S
PINE RIVER     CLOUDY    34  28  80 E8        30.24S WCI  27
BRAINERD       CLOUDY    32  29  88 E5        30.22R WCI  27
STAPLES        CLOUDY    32  27  80 E8        30.19S WCI  25
LONG PRAIRIE   CLOUDY    32  30  93 NE9       30.20R WCI  24
LITTLE FALLS   CLOUDY    32  28  86 E9        30.21R WCI  24
LITCHFIELD     CLOUDY    36  32  87 E10G16    30.18R
BUFFALO        CLOUDY    35  31  83 NE8       30.19S WCI  29
MAPLE LAKE     CLOUDY    36  32  86 NE7       30.19S
HUTCHINSON     CLOUDY    36  33  90 NE8       30.17S
$$
MNZ037-044-045-052-053-251300-
   East Central Minnesota

CITY           SKY/WX    TMP DP  RH WIND       PRES   REMARKS
PRINCETON      CLOUDY    36  30  80 NE7       30.21R
MORA           CLOUDY    32  28  86 E3        30.24R
CAMBRIDGE      CLOUDY    37  28  70 NE5       30.19S
RUSH CITY      CLOUDY    34  30  86 NE7       30.22R WCI  28
MOOSE LAKE     CLOUDY    32  30  93 NE6       30.22R WCI  26
HINCKLEY       CLOUDY    32  32 100 CALM      30.23R
CLOQUET        CLOUDY    32  28  86 E10       30.24R WCI  24
MCGREGOR       CLOUDY    32  30  93 NE6       30.23S WCI  26
$$
MNZ071>073-080-081-089-090-097-098-251300-
   Southwest Minnesota

CITY           SKY/WX    TMP DP  RH WIND       PRES   REMARKS
MONTEVIDEO     CLOUDY    34  32  93 SE8       30.18S WCI  27
GRANITE FALLS  CLOUDY    37  33  87 NE7       30.17F
CANBY          CLOUDY    35  33  92 CALM      30.17S
MARSHALL       CLOUDY    34  33  96 E6        30.15S WCI  29
REDWOOD FALLS  CLOUDY    36  32  85 NE8       30.15S
OLIVIA         CLOUDY    34  32  93 E8        30.15S WCI  27
PIPESTONE      CLOUDY    34  30  86 E9        30.09F FOG     WCI  26
WINDOM         CLOUDY    36  34  93 NE14      30.11S FOG
WORTHINGTON    CLOUDY   N/A N/A N/A NE15      30.09S FOG
JACKSON        CLOUDY    34  34 100 NE15      30.10R FOG     WCI  24
TRACY          CLOUDY    35  34  97 NE8       30.14S FOG     WCI  28
SLAYTON        CLOUDY    33  32  98 NE12      30.11F FOG     WCI  24
$$
MNZ065>067-074>077-082>085-091>093-251300-
   South Central Minnesota

CITY           SKY/WX    TMP DP  RH WIND       PRES   REMARKS
MANKATO        CLOUDY    37  33  85 NE13      30.12S
NEW ULM        CLOUDY    36  32  87 NE10      30.13S
ST JAMES       CLOUDY    36  34  93 N9        30.13S
FAIRMONT       CLOUDY    36  34  92 NE15      30.10R
GLENCOE        CLOUDY    37  34  92 NE3       30.16R
FARIBAULT      CLOUDY    37  34  87 NE8       30.12S
OWATONNA       CLOUDY    36  32  87 NE16      30.10S
WASECA         CLOUDY    36  34  93 NE13G21   30.11S
ALBERT LEA     CLOUDY    36  36 100 NE14      30.07S FOG
$$
MNZ078>079-086>088-094>096-251300-
   Southeast Minnesota

CITY           SKY/WX    TMP DP  RH WIND       PRES   REMARKS
ROCHESTER      CLOUDY    35  35 100 NE18      30.09R WCI  24
6HR MIN TEMP:  35; 6HR MAX TEMP:  37;

RED WING       CLOUDY    37  30  75 E10G18    30.14F
STANTON        CLOUDY    38  33  83 NE10G18   30.12S
DODGE CENTER   CLOUDY    36  34  93 NE15      30.09R
WINONA         CLOUDY    37  34  87 E5        30.14R
AUSTIN         CLOUDY    37  34  87 NE16      30.07R
PRESTON        CLOUDY    35  33  92 NE10G16   30.08R WCI  27
$$
ABBREVIATIONS USED IN REMARKS
   TC - TEMPERATURES IN CELSIUS
  WCI - WIND CHILL INDEX
   HX - HEAT INDEX
  VSB - VISIBILITY
$$




USA.gov is the U.S. government's official web portal to all federal, state and local government web resources and services.